QPF
0.04 0.04 0.04 0.04 0.04 0.04 0.05 0.05 0.05 0.06 0.06 0.07 0.12 0.09 0.07 0.10 0.15 0.15 0.13 0.14 0.14 0.15 0.12 0.09 0.06 0.06 0.04 0.03 0.03 0.04 0.03 0.04 0.04 0.03 0.03 0.04 0.04 0.03 0.02 0.02 0.02 0.01 0.02
0.08 0.08 0.07 0.08 0.09 0.07 0.06 0.07 0.08 0.07 0.09 0.09 0.10 0.12 0.11 0.10 0.14 0.14 0.10 0.13 0.12 0.09 0.10 0.10 0.10 0.07 0.05 0.04 0.04 0.05 0.05 0.04 0.04 0.04 0.05 0.04 0.03 0.04 0.04 0.03 0.02 0.02 0.02
0.11 0.09 0.09 0.09 0.09 0.08 0.06 0.07 0.09 0.11 0.10 0.07 0.06 0.09 0.12 0.12 0.14 0.14 0.13 0.10 0.08 0.08 0.09 0.08 0.09 0.09 0.09 0.08 0.05 0.04 0.04 0.05 0.05 0.05 0.05 0.04 0.04 0.04 0.04 0.03 0.03 0.03 0.03
0.09 0.09 0.08 0.06 0.07 0.07 0.06 0.06 0.06 0.05 0.05 0.04 0.04 0.04 0.05 0.06 0.06 0.05 0.06 0.07 0.06 0.06 0.07 0.08 0.09 0.10 0.10 0.09 0.07 0.06 0.05 0.05 0.04 0.03 0.04 0.06 0.05 0.04 0.04 0.03 0.04 0.04 0.04
0.06 0.06 0.06 0.06 0.06 0.06 0.06 0.05 0.05 0.05 0.03 0.02 0.02 0.02 0.02 0.02 0.02 0.03 0.03 0.05 0.06 0.07 0.07 0.08 0.12 0.13 0.10 0.09 0.08 0.06 0.05 0.05 0.04 0.04 0.04 0.06 0.06 0.06 0.05 0.04 0.04 0.03 0.04
0.05 0.05 0.06 0.06 0.06 0.05 0.05 0.04 0.03 0.03 0.03 0.02 0.02 0.01 0.01 0.01 0.01 0.02 0.03 0.04 0.07 0.09 0.09 0.12 0.13 0.11 0.09 0.08 0.07 0.07 0.07 0.09 0.08 0.06 0.06 0.06 0.07 0.08 0.07 0.06 0.05 0.04 0.04
0.07 0.07 0.08 0.07 0.05 0.05 0.06 0.06 0.06 0.05 0.04 0.03 0.03 0.02 0.01 0.01 0.01 0.01 0.02 0.04 0.05 0.07 0.10 0.12 0.13 0.11 0.10 0.08 0.08 0.08 0.08 0.09 0.10 0.08 0.07 0.06 0.06 0.07 0.08 0.07 0.06 0.07 0.07
0.07 0.07 0.09 0.10 0.10 0.09 0.09 0.08 0.07 0.05 0.03 0.03 0.03 0.03 0.01 0.01 0.01 0.01 0.02 0.02 0.04 0.07 0.10 0.13 0.12 0.12 0.13 0.11 0.08 0.07 0.08 0.08 0.09 0.09 0.08 0.07 0.07 0.07 0.07 0.07 0.07 0.07 0.08
0.07 0.06 0.06 0.08 0.12 0.13 0.11 0.09 0.07 0.05 0.04 0.03 0.03 0.03 0.02 0.01 0.01 0.01 0.01 0.02 0.04 0.08 0.10 0.12 0.13 0.10 0.12 0.12 0.09 0.07 0.08 0.07 0.08 0.08 0.08 0.07 0.07 0.07 0.07 0.06 0.06 0.07 0.07
0.10 0.09 0.07 0.06 0.07 0.08 0.09 0.08 0.06 0.04 0.04 0.04 0.03 0.03 0.03 0.03 0.03 0.02 0.02 0.03 0.03 0.04 0.07 0.12 0.12 0.09 0.09 0.11 0.09 0.07 0.06 0.06 0.06 0.08 0.08 0.08 0.08 0.08 0.06 0.06 0.06 0.08 0.09
0.12 0.09 0.08 0.07 0.07 0.05 0.04 0.04 0.04 0.03 0.03 0.03 0.03 0.04 0.04 0.05 0.06 0.06 0.04 0.02 0.01 0.02 0.04 0.06 0.10 0.09 0.08 0.08 0.08 0.05 0.05 0.06 0.06 0.06 0.06 0.06 0.05 0.05 0.05 0.06 0.07 0.08 0.10
0.10 0.10 0.08 0.07 0.06 0.04 0.03 0.03 0.02 0.02 0.02 0.03 0.05 0.06 0.05 0.06 0.05 0.06 0.04 0.02 0.02 0.02 0.03 0.04 0.05 0.05 0.07 0.06 0.05 0.04 0.03 0.04 0.04 0.04 0.05 0.04 0.05 0.04 0.04 0.06 0.07 0.08 0.11
0.07 0.07 0.08 0.07 0.06 0.03 0.03 0.02 0.02 0.02 0.02 0.03 0.04 0.04 0.04 0.04 0.04 0.04 0.04 0.03 0.03 0.03 0.03 0.04 0.04 0.05 0.06 0.06 0.04 0.04 0.03 0.02 0.02 0.03 0.03 0.04 0.04 0.05 0.05 0.06 0.07 0.09 0.11
0.06 0.06 0.06 0.06 0.06 0.05 0.03 0.02 0.03 0.03 0.03 0.02 0.02 0.02 0.02 0.03 0.03 0.02 0.03 0.03 0.02 0.02 0.03 0.05 0.05 0.06 0.06 0.06 0.04 0.03 0.03 0.03 0.02 0.02 0.02 0.03 0.03 0.04 0.04 0.05 0.06 0.07 0.09
0.06 0.05 0.05 0.04 0.04 0.04 0.03 0.02 0.02 0.03 0.03 0.03 0.03 0.02 0.02 0.02 0.02 0.03 0.03 0.03 0.03 0.02 0.02 0.04 0.05 0.06 0.07 0.06 0.06 0.04 0.03 0.03 0.03 0.03 0.03 0.03 0.03 0.04 0.04 0.04 0.05 0.05 0.06
0.06 0.07 0.06 0.04 0.04 0.03 0.02 0.02 0.02 0.02 0.02 0.02 0.03 0.03 0.02 0.02 0.02 0.03 0.03 0.04 0.04 0.03 0.02 0.03 0.05 0.05 0.06 0.06 0.05 0.05 0.04 0.04 0.03 0.04 0.04 0.04 0.04 0.04 0.04 0.05 0.05 0.06 0.06
0.07 0.06 0.06 0.05 0.04 0.04 0.03 0.02 0.02 0.02 0.02 0.02 0.03 0.03 0.02 0.02 0.02 0.03 0.05 0.05 0.07 0.08 0.07 0.06 0.05 0.04 0.04 0.06 0.06 0.06 0.06 0.04 0.03 0.02 0.03 0.04 0.04 0.05 0.04 0.05 0.05 0.05 0.05
0.07 0.05 0.05 0.05 0.04 0.03 0.03 0.03 0.02 0.02 0.03 0.04 0.03 0.02 0.02 0.02 0.03 0.03 0.03 0.03 0.04 0.05 0.07 0.08 0.10 0.09 0.08 0.10 0.10 0.09 0.07 0.05 0.04 0.03 0.03 0.04 0.05 0.06 0.06 0.06 0.06 0.06 0.06
0.08 0.06 0.05 0.03 0.03 0.02 0.02 0.02 0.02 0.03 0.04 0.03 0.02 0.01 0.01 0.02 0.02 0.02 0.02 0.02 0.03 0.03 0.04 0.05 0.08 0.10 0.13 0.18 0.17 0.11 0.07 0.05 0.04 0.03 0.04 0.04 0.04 0.05 0.06 0.07 0.07 0.07 0.07
0.08 0.06 0.04 0.02 0.02 0.02 0.02 0.02 0.02 0.02 0.01 0.01 0.01 0.01 0.01 0.01 0.01 0.02 0.02 0.02 0.02 0.03 0.03 0.04 0.04 0.05 0.08 0.12 0.13 0.08 0.05 0.04 0.04 0.02 0.02 0.03 0.03 0.03 0.04 0.05 0.06 0.07 0.07
0.06 0.05 0.04 0.03 0.03 0.02 0.02 0.02 0.03 0.02 0.01 0.00 0.01 0.01 0.01 0.01 0.01 0.01 0.01 0.01 0.02 0.03 0.03 0.04 0.04 0.04 0.05 0.07 0.06 0.04 0.05 0.04 0.03 0.02 0.02 0.02 0.02 0.02 0.02 0.03 0.04 0.05 0.07
0.07 0.05 0.03 0.02 0.02 0.02 0.01 0.01 0.01 0.01 0.00 0.00 0.01 0.00 0.00 0.01 0.00 0.01 0.01 0.01 0.01 0.01 0.02 0.02 0.03 0.03 0.03 0.03 0.03 0.03 0.03 0.03 0.03 0.02 0.02 0.02 0.02 0.02 0.01 0.01 0.02 0.03 0.04
0.05 0.03 0.02 0.01 0.01 0.01 0.01 0.01 0.01 0.01 0.00 0.00 0.00 0.00 0.01 0.01 0.01 0.01 0.01 0.02 0.01 0.01 0.01 0.02 0.02 0.03 0.03 0.03 0.02 0.02 0.03 0.02 0.02 0.02 0.02 0.03 0.03 0.02 0.01 0.01 0.01 0.01 0.02
0.03 0.03 0.02 0.01 0.01 0.00 0.00 0.00 0.00 0.00 0.00 0.00 0.00 0.00 0.01 0.01 0.01 0.01 0.01 0.01 0.01 0.02 0.02 0.02 0.01 0.01 0.01 0.02 0.03 0.02 0.03 0.02 0.01 0.02 0.03 0.04 0.03 0.02 0.01 0.01 0.01 0.01 0.01
0.03 0.02 0.01 0.00 0.01 0.00 0.00 0.00 0.00 0.00 0.00 0.00 0.00 0.00 0.01 0.02 0.01 0.01 0.01 0.01 0.01 0.01 0.01 0.01 0.01 0.01 0.01 0.02 0.02 0.03 0.03 0.02 0.02 0.02 0.03 0.04 0.03 0.02 0.01 0.01 0.01 0.02 0.02
0.01 0.01 0.00 0.00 0.00 0.00 0.00 0.00 0.00 0.00 0.01 0.01 0.01 0.00 0.00 0.01 0.01 0.00 0.01 0.02 0.01 0.01 0.01 0.01 0.01 0.01 0.02 0.02 0.02 0.02 0.03 0.03 0.02 0.02 0.02 0.03 0.04 0.03 0.02 0.01 0.01 0.01 0.01
MSLP
1013.53 1013.64 1013.66 1013.62 1013.55 1013.50 1013.49 1013.52 1013.58 1013.63 1013.66 1013.64 1013.56 1013.45 1013.31 1013.19 1013.11 1013.08 1013.12 1013.22 1013.36 1013.53 1013.71 1013.92 1014.13 1014.37 1014.62 1014.89 1015.18 1015.45 1015.71 1015.93 1016.11 1016.25 1016.36 1016.45 1016.55 1016.67 1016.80 1016.97 1017.15 1017.35 1017.57
1012.68 1012.88 1013.01 1013.09 1013.14 1013.20 1013.27 1013.35 1013.43 1013.48 1013.49 1013.45 1013.35 1013.21 1013.05 1012.89 1012.77 1012.70 1012.69 1012.74 1012.85 1013.00 1013.18 1013.39 1013.63 1013.89 1014.18 1014.48 1014.79 1015.09 1015.37 1015.62 1015.83 1016.01 1016.16 1016.30 1016.44 1016.59 1016.76 1016.95 1017.16 1017.38 1017.63
1011.78 1012.05 1012.30 1012.52 1012.71 1012.90 1013.07 1013.22 1013.34 1013.41 1013.42 1013.36 1013.24 1013.07 1012.87 1012.66 1012.48 1012.35 1012.27 1012.25 1012.30 1012.40 1012.56 1012.77 1013.03 1013.32 1013.64 1013.98 1014.33 1014.67 1014.98 1015.27 1015.53 1015.76 1015.97 1016.16 1016.36 1016.56 1016.77 1017.00 1017.24 1017.49 1017.77
1010.91 1011.25 1011.60 1011.94 1012.28 1012.59 1012.87 1013.10 1013.28 1013.38 1013.40 1013.34 1013.21 1013.01 1012.77 1012.51 1012.26 1012.04 1011.87 1011.77 1011.74 1011.78 1011.90 1012.10 1012.36 1012.68 1013.04 1013.42 1013.81 1014.19 1014.56 1014.90 1015.21 1015.50 1015.77 1016.03 1016.29 1016.55 1016.81 1017.08 1017.36 1017.65 1017.95
1010.18 1010.55 1010.96 1011.40 1011.84 1012.25 1012.63 1012.94 1013.18 1013.33 1013.39 1013.34 1013.21 1013.01 1012.74 1012.43 1012.11 1011.81 1011.55 1011.34 1011.22 1011.19 1011.26 1011.42 1011.68 1012.01 1012.40 1012.82 1013.26 1013.69 1014.11 1014.50 1014.88 1015.23 1015.57 1015.90 1016.23 1016.55 1016.86 1017.18 1017.49 1017.81 1018.14
1009.64 1010.00 1010.44 1010.91 1011.40 1011.88 1012.33 1012.71 1013.01 1013.22 1013.33 1013.33 1013.23 1013.04 1012.76 1012.43 1012.06 1011.68 1011.32 1011.02 1010.80 1010.68 1010.68 1010.80 1011.03 1011.37 1011.77 1012.22 1012.70 1013.18 1013.65 1014.11 1014.54 1014.96 1015.37 1015.76 1016.15 1016.53 1016.90 1017.25 1017.60 1017.94 1018.30
1009.33 1009.63 1010.03 1010.49 1010.98 1011.48 1011.96 1012.39 1012.75 1013.02 1013.19 1013.26 1013.22 1013.08 1012.83 1012.50 1012.10 1011.66 1011.23 1010.83 1010.51 1010.30 1010.22 1010.28 1010.47 1010.79 1011.19 1011.66 1012.16 1012.68 1013.20 1013.70 1014.19 1014.67 1015.14 1015.60 1016.05 1016.48 1016.89 1017.28 1017.66 1018.03 1018.40
1009.21 1009.43 1009.75 1010.14 1010.59 1011.07 1011.54 1011.99 1012.40 1012.73 1012.99 1013.14 1013.19 1013.12 1012.93 1012.63 1012.23 1011.76 1011.27 1010.79 1010.38 1010.08 1009.91 1009.89 1010.03 1010.30 1010.69 1011.15 1011.66 1012.20 1012.74 1013.29 1013.83 1014.36 1014.89 1015.41 1015.91 1016.39 1016.84 1017.26 1017.66 1018.05 1018.44
1009.23 1009.35 1009.56 1009.86 1010.23 1010.66 1011.11 1011.56 1012.00 1012.40 1012.74 1012.99 1013.13 1013.15 1013.04 1012.79 1012.42 1011.95 1011.42 1010.89 1010.41 1010.02 1009.76 1009.66 1009.72 1009.93 1010.27 1010.70 1011.20 1011.73 1012.29 1012.86 1013.44 1014.02 1014.59 1015.16 1015.71 1016.23 1016.73 1017.18 1017.61 1018.02 1018.42
1009.28 1009.31 1009.42 1009.63 1009.92 1010.29 1010.71 1011.16 1011.62 1012.07 1012.48 1012.82 1013.06 1013.18 1013.15 1012.97 1012.65 1012.19 1011.65 1011.09 1010.55 1010.09 1009.75 1009.57 1009.55 1009.68 1009.95 1010.33 1010.78 1011.29 1011.84 1012.42 1013.01 1013.62 1014.24 1014.85 1015.44 1016.01 1016.55 1017.04 1017.50 1017.93 1018.35
1009.28 1009.25 1009.29 1009.43 1009.67 1009.99 1010.38 1010.83 1011.31 1011.79 1012.26 1012.67 1012.99 1013.19 1013.24 1013.13 1012.86 1012.44 1011.91 1011.34 1010.77 1010.26 1009.86 1009.60 1009.50 1009.55 1009.74 1010.04 1010.43 1010.90 1011.41 1011.97 1012.57 1013.19 1013.83 1014.47 1015.11 1015.73 1016.30 1016.84 1017.34 1017.80 1018.24
1009.15 1009.09 1009.12 1009.23 1009.45 1009.76 1010.14 1010.60 1011.09 1011.60 1012.10 1012.55 1012.92 1013.18 1013.28 1013.23 1013.01 1012.63 1012.14 1011.59 1011.02 1010.50 1010.06 1009.75 1009.58 1009.55 1009.65 1009.87 1010.18 1010.57 1011.03 1011.55 1012.12 1012.73 1013.38 1014.05 1014.72 1015.38 1016.00 1016.58 1017.12 1017.62 1018.10
1008.83 1008.81 1008.86 1009.01 1009.26 1009.59 1010.00 1010.47 1010.98 1011.50 1012.01 1012.47 1012.85 1013.12 1013.26 1013.24 1013.07 1012.74 1012.31 1011.80 1011.27 1010.76 1010.32 1009.99 1009.77 1009.68 1009.70 1009.83 1010.05 1010.36 1010.74 1011.19 1011.71 1012.29 1012.93 1013.60 1014.29 1014.98 1015.64 1016.27 1016.86 1017.41 1017.92
1008.33 1008.39 1008.52 1008.76 1009.08 1009.49 1009.95 1010.45 1010.97 1011.49 1011.97 1012.41 1012.77 1013.02 1013.16 1013.16 1013.02 1012.75 1012.38 1011.94 1011.48 1011.03 1010.63 1010.30 1010.07 1009.94 1009.90 1009.95 1010.08 1010.29 1010.58 1010.94 1011.39 1011.91 1012.51 1013.16 1013.85 1014.55 1015.25 1015.92 1016.56 1017.15 1017.71
1007.72 1007.87 1008.13 1008.48 1008.92 1009.42 1009.96 1010.51 1011.04 1011.54 1011.98 1012.37 1012.67 1012.88 1012.98 1012.98 1012.87 1012.65 1012.36 1012.01 1011.65 1011.28 1010.95 1010.68 1010.46 1010.32 1010.24 1010.23 1010.27 1010.39 1010.57 1010.84 1011.19 1011.63 1012.16 1012.77 1013.43 1014.13 1014.85 1015.55 1016.23 1016.87 1017.47
1007.07 1007.33 1007.72 1008.21 1008.78 1009.40 1010.02 1010.61 1011.16 1011.63 1012.02 1012.33 1012.56 1012.70 1012.76 1012.74 1012.65 1012.48 1012.27 1012.03 1011.77 1011.52 1011.29 1011.09 1010.92 1010.79 1010.70 1010.64 1010.62 1010.64 1010.73 1010.89 1011.14 1011.49 1011.93 1012.47 1013.09 1013.76 1014.47 1015.19 1015.90 1016.57 1017.22
1006.49 1006.86 1007.37 1007.99 1008.68 1009.41 1010.11 1010.75 1011.30 1011.74 1012.08 1012.31 1012.46 1012.53 1012.53 1012.49 1012.40 1012.28 1012.15 1012.00 1011.86 1011.73 1011.60 1011.49 1011.40 1011.31 1011.22 1011.14 1011.08 1011.04 1011.04 1011.11 1011.26 1011.50 1011.86 1012.31 1012.86 1013.49 1014.17 1014.88 1015.59 1016.30 1016.97
1006.08 1006.52 1007.13 1007.85 1008.65 1009.45 1010.22 1010.89 1011.45 1011.86 1012.15 1012.31 1012.38 1012.38 1012.33 1012.26 1012.18 1012.10 1012.03 1011.97 1011.93 1011.90 1011.89 1011.87 1011.84 1011.81 1011.75 1011.67 1011.59 1011.51 1011.46 1011.45 1011.52 1011.68 1011.94 1012.31 1012.79 1013.35 1013.98 1014.66 1015.36 1016.06 1016.75
1005.89 1006.37 1007.03 1007.82 1008.68 1009.54 1010.34 1011.04 1011.59 1011.98 1012.22 1012.33 1012.34 1012.29 1012.20 1012.11 1012.02 1011.97 1011.95 1011.96 1012.00 1012.05 1012.12 1012.18 1012.22 1012.24 1012.22 1012.17 1012.09 1012.01 1011.93 1011.89 1011.90 1012.00 1012.19 1012.48 1012.87 1013.36 1013.93 1014.56 1015.22 1015.90 1016.57
1005.91 1006.41 1007.09 1007.90 1008.78 1009.66 1010.47 1011.17 1011.71 1012.08 1012.30 1012.38 1012.36 1012.27 1012.16 1012.05 1011.97 1011.93 1011.94 1011.99 1012.07 1012.18 1012.30 1012.42 1012.51 1012.58 1012.60 1012.59 1012.54 1012.48 1012.41 1012.37 1012.37 1012.43 1012.57 1012.80 1013.13 1013.54 1014.03 1014.59 1015.19 1015.81 1016.45
1006.10 1006.59 1007.26 1008.05 1008.92 1009.78 1010.58 1011.26 1011.79 1012.16 1012.36 1012.44 1012.41 1012.32 1012.21 1012.11 1012.03 1012.00 1012.02 1012.08 1012.18 1012.31 1012.45 1012.59 1012.72 1012.82 1012.88 1012.91 1012.91 1012.90 1012.87 1012.86 1012.87 1012.94 1013.06 1013.25 1013.52 1013.86 1014.26 1014.73 1015.25 1015.80 1016.36
1006.37 1006.84 1007.48 1008.24 1009.07 1009.89 1010.66 1011.32 1011.84 1012.20 1012.42 1012.51 1012.50 1012.44 1012.35 1012.26 1012.20 1012.17 1012.19 1012.25 1012.35 1012.46 1012.60 1012.74 1012.87 1012.98 1013.08 1013.15 1013.21 1013.25 1013.28 1013.33 1013.39 1013.47 1013.60 1013.77 1013.99 1014.26 1014.58 1014.95 1015.37 1015.81 1016.28
1006.64 1007.09 1007.70 1008.42 1009.19 1009.97 1010.70 1011.33 1011.84 1012.21 1012.45 1012.57 1012.61 1012.59 1012.54 1012.49 1012.45 1012.43 1012.45 1012.50 1012.57 1012.66 1012.77 1012.89 1013.00 1013.12 1013.23 1013.34 1013.44 1013.54 1013.64 1013.75 1013.86 1013.99 1014.13 1014.29 1014.47 1014.68 1014.92 1015.19 1015.49 1015.82 1016.17
1006.84 1007.30 1007.88 1008.56 1009.29 1010.02 1010.70 1011.31 1011.81 1012.19 1012.46 1012.64 1012.73 1012.77 1012.77 1012.77 1012.76 1012.77 1012.79 1012.82 1012.87 1012.93 1013.00 1013.08 1013.17 1013.27 1013.39 1013.51 1013.65 1013.79 1013.95 1014.11 1014.27 1014.43 1014.59 1014.74 1014.89 1015.04 1015.20 1015.36 1015.54 1015.75 1015.98
1006.95 1007.44 1008.03 1008.68 1009.37 1010.06 1010.71 1011.29 1011.78 1012.18 1012.48 1012.70 1012.86 1012.96 1013.02 1013.07 1013.10 1013.13 1013.16 1013.19 1013.22 1013.25 1013.28 1013.33 1013.39 1013.47 1013.56 1013.69 1013.83 1014.00 1014.18 1014.37 1014.56 1014.74 1014.90 1015.05 1015.16 1015.26 1015.34 1015.41 1015.48 1015.56 1015.67
1007.01 1007.55 1008.16 1008.81 1009.48 1010.13 1010.75 1011.31 1011.79 1012.20 1012.53 1012.79 1012.99 1013.15 1013.27 1013.36 1013.44 1013.49 1013.53 1013.56 1013.58 1013.59 1013.61 1013.62 1013.65 1013.69 1013.77 1013.87 1014.00 1014.15 1014.33 1014.52 1014.71 1014.88 1015.03 1015.15 1015.23 1015.28 1015.29 1015.27 1015.25 1015.23 1015.23
Thickness
5726 5725 5723 5722 5720 5719 5718 5717 5715 5714 5712 5711 5711 5710 5709 5709 5710 5710 5709 5710 5710 5709 5708 5708 5707 5706 5705 5705 5704 5703 5701 5700 5700 5699 5699 5699 5699 5698 5698 5698 5697 5697 5695
5722 5720 5718 5717 5716 5714 5713 5712 5711 5710 5709 5708 5707 5707 5706 5706 5707 5706 5706 5706 5706 5706 5706 5705 5705 5704 5703 5702 5701 5700 5699 5698 5698 5697 5697 5697 5697 5697 5696 5696 5695 5695 5694
5718 5716 5714 5713 5711 5710 5709 5707 5706 5705 5704 5703 5702 5702 5702 5702 5703 5703 5703 5703 5702 5702 5702 5702 5702 5701 5700 5699 5698 5698 5697 5696 5696 5695 5695 5695 5695 5694 5694 5694 5693 5693 5692
5714 5712 5709 5708 5706 5704 5704 5702 5700 5698 5698 5697 5697 5697 5697 5697 5698 5698 5699 5699 5699 5698 5699 5699 5699 5698 5697 5697 5696 5695 5695 5694 5693 5693 5693 5693 5693 5692 5692 5691 5691 5691 5691
5709 5706 5704 5703 5701 5699 5697 5697 5694 5693 5691 5691 5691 5692 5692 5692 5693 5694 5694 5694 5695 5694 5694 5695 5695 5695 5694 5693 5693 5692 5692 5692 5691 5691 5691 5691 5691 5690 5690 5689 5689 5689 5689
5704 5701 5699 5697 5696 5693 5691 5690 5688 5687 5687 5686 5686 5685 5686 5687 5688 5688 5689 5690 5690 5690 5690 5690 5691 5691 5691 5690 5689 5689 5689 5688 5688 5688 5688 5688 5688 5688 5687 5687 5686 5686 5686
5698 5696 5692 5690 5689 5686 5685 5684 5682 5680 5679 5679 5677 5676 5678 5681 5683 5683 5684 5684 5684 5685 5685 5685 5686 5686 5686 5686 5686 5685 5685 5685 5685 5685 5685 5685 5685 5684 5684 5684 5684 5684 5684
5692 5690 5686 5684 5682 5680 5678 5677 5675 5673 5672 5672 5668 5665 5664 5668 5673 5677 5677 5677 5678 5679 5680 5681 5681 5681 5681 5681 5680 5681 5680 5681 5682 5682 5682 5681 5681 5681 5680 5680 5680 5681 5680
5685 5682 5680 5677 5675 5673 5671 5669 5669 5666 5663 5664 5663 5660 5656 5655 5659 5665 5668 5669 5670 5671 5673 5675 5676 5676 5676 5676 5675 5675 5676 5676 5677 5678 5678 5678 5677 5677 5677 5677 5677 5677 5676
5675 5674 5672 5670 5668 5666 5664 5663 5662 5661 5658 5656 5655 5656 5655 5654 5651 5653 5657 5661 5663 5664 5666 5668 5669 5670 5670 5670 5670 5670 5671 5671 5672 5673 5673 5674 5674 5673 5673 5673 5673 5673 5672
5666 5666 5664 5663 5661 5659 5658 5656 5655 5654 5652 5650 5649 5648 5648 5647 5647 5645 5646 5650 5654 5657 5660 5662 5663 5664 5664 5665 5664 5665 5665 5666 5667 5668 5668 5669 5669 5669 5669 5668 5668 5668 5668
5658 5657 5656 5655 5654 5652 5651 5650 5648 5647 5646 5645 5644 5642 5641 5640 5640 5640 5640 5642 5644 5649 5653 5655 5657 5657 5658 5659 5659 5659 5660 5660 5661 5662 5663 5663 5664 5664 5664 5664 5663 5663 5663
5649 5649 5649 5648 5647 5646 5644 5643 5641 5640 5639 5638 5638 5637 5636 5636 5637 5635 5635 5636 5638 5641 5645 5648 5651 5652 5652 5652 5653 5654 5654 5654 5655 5656 5657 5657 5658 5658 5658 5658 5658 5658 5657
5643 5643 5642 5642 5641 5639 5638 5636 5634 5633 5633 5632 5632 5632 5631 5631 5632 5631 5631 5630 5630 5632 5635 5639 5643 5645 5646 5646 5647 5648 5648 5648 5648 5649 5650 5651 5652 5652 5652 5652 5652 5651 5651
5638 5637 5636 5635 5634 5632 5631 5629 5628 5627 5626 5625 5625 5626 5625 5626 5627 5627 5627 5627 5625 5625 5628 5632 5635 5638 5640 5640 5640 5641 5641 5642 5642 5643 5644 5645 5646 5646 5645 5645 5645 5645 5644
5632 5631 5630 5628 5627 5625 5624 5623 5622 5621 5620 5619 5619 5620 5620 5620 5621 5622 5622 5622 5622 5622 5622 5626 5629 5631 5633 5634 5634 5634 5635 5636 5636 5637 5638 5638 5639 5639 5639 5639 5639 5638 5637
5626 5625 5624 5622 5621 5619 5618 5617 5616 5615 5614 5613 5613 5614 5614 5615 5615 5615 5616 5616 5617 5617 5617 5620 5622 5625 5626 5627 5627 5627 5628 5629 5630 5631 5632 5632 5632 5632 5632 5632 5632 5631 5631
5621 5619 5618 5616 5615 5614 5612 5611 5610 5609 5608 5607 5607 5607 5608 5609 5609 5609 5609 5610 5611 5612 5612 5613 5614 5617 5619 5620 5620 5620 5621 5622 5623 5624 5625 5626 5626 5626 5626 5626 5625 5625 5624
5615 5614 5612 5610 5609 5608 5606 5605 5604 5603 5602 5601 5601 5601 5601 5602 5602 5603 5604 5604 5605 5606 5606 5606 5607 5609 5611 5612 5613 5613 5614 5615 5616 5618 5619 5619 5619 5619 5620 5620 5619 5619 5619
5610 5608 5606 5604 5603 5601 5600 5599 5598 5597 5596 5595 5595 5595 5595 5596 5597 5598 5599 5599 5599 5600 5600 5600 5601 5601 5603 5604 5605 5605 5605 5607 5609 5611 5612 5613 5613 5613 5613 5614 5614 5613 5613
5604 5602 5600 5598 5597 5595 5594 5592 5591 5591 5589 5589 5589 5589 5590 5590 5591 5592 5593 5593 5594 5593 5593 5593 5594 5594 5595 5596 5597 5598 5598 5599 5601 5604 5604 5605 5606 5606 5607 5607 5608 5608 5608
5597 5595 5593 5592 5591 5590 5589 5587 5586 5584 5583 5583 5582 5583 5583 5584 5585 5586 5587 5588 5588 5588 5588 5588 5588 5588 5589 5590 5591 5592 5591 5592 5593 5597 5597 5598 5599 5600 5601 5602 5603 5603 5603
5592 5589 5588 5586 5585 5584 5584 5582 5581 5579 5578 5577 5577 5577 5578 5578 5578 5579 5580 5581 5582 5583 5584 5584 5583 5584 5584 5586 5586 5585 5585 5586 5588 5591 5590 5591 5593 5594 5597 5598 5599 5598 5598
5588 5586 5584 5583 5581 5580 5579 5577 5576 5574 5573 5572 5572 5572 5571 5571 5572 5573 5574 5575 5576 5577 5579 5579 5580 5580 5581 5581 5581 5581 5581 5581 5583 5585 5586 5585 5587 5589 5593 5594 5595 5594 5594
5585 5583 5581 5579 5577 5575 5574 5573 5572 5569 5568 5567 5567 5567 5566 5566 5566 5567 5568 5568 5569 5570 5572 5574 5575 5576 5577 5577 5576 5575 5575 5575 5576 5579 5581 5581 5583 5584 5586 5589 5590 5590 5590
5584 5581 5579 5577 5575 5572 5571 5570 5568 5565 5563 5562 5562 5562 5562 5562 5562 5562 5561 5562 5562 5564 5566 5567 5568 5570 5571 5572 5572 5572 5572 5571 5571 5573 5577 5577 5578 5578 5579 5582 5585 5585 5585